Погода в Лесных Полянах

Россия / Кировская область     59°00′04″N   52°25′00″E
темп.,
°C
ветер,
м/с
пор.,
м/с
влажн.,
%
обл.,
%
осадки,
мм/ч
давл.,
гПа
погр.,
м
27 июля, вт
вт2700:00+12з31097100 1.2 1012442
03:00+13зсз399992 3.8 1012546
06:00+11ссз49941 0.2 1014636
09:00+14сз575533 0.2 10141468
12:00+16сз564118 0.0 10141875
15:00+15ссз575119 0.0 10141421
18:00+12ссз386427 0.0 1015976
21:00+10сз276783 0.0 1015369
28 июля, ср
ср2800:00+10з3106972 0.0 1014516
03:00+7зсз2893100 0.1 1014245
06:00+10сз487554 0.0 1014755
09:00+11сз4756100 0.1 10141485
12:00+12ссз4756100 0.0 10141251
15:00+15ссз474730 0.0 10131685
18:00+15з116126 0.0 101130
21:00+10ююз36745 0.0 1011110
29 июля, чт
чт2900:00+8ююз388421 0.0 1010135
03:00+8юз310855 0.0 1008185
06:00+13зюз38666 0.0 1007237
09:00+19з364921 0.0 1006574
12:00+23зюз463699 0.0 10052573
15:00+20юз2457100 0.0 1004201
18:00+18ююз267498 0.0 1004178
21:00+14ююз289299 0.1 1003155
30 июля, пт
пт3000:00+14ююз389895 0.0 1003205
03:00+13юз3995100 0.0 1003282
06:00+15ююз3990100 0.0 1002363
09:00+18ююз51082100 0.4 1001716
12:00+18з5119472 1.9 1001980
15:00+20зсз511835 3.4 10011348
18:00+18зсз38946 1.6 1003477
21:00+15з22965 2.3 100434
31 июля, сб
сб3100:00+14юз239745 0.0 100560
03:00+14юз2598100 0.4 1005121
06:00+16юз289565 0.3 1006216
09:00+22юз3659100 0.3 1005586
12:00+25юз5847100 0.0 10041613
15:00+18ююз2895100 1.4 1005193
18:00+18ююз51094100 2.7 1004446
21:00+16ююз399926 3.9 1005255